Regional Weather Roundup
Issued by NWS Pendleton, OR

Home | Current Version | Previous Version | Text Only | Print | Product List | Glossary On
Versions: 1 2 3 4 5 6 7 8 9 10 11 12 13 14 15 16 17 18 19 20 21 22 23 24 25 26 27 28 29 30 31 32 33 34 35 36 37 38 39 40 41 42 43 44 45 46 47 48 49 50
575
ASUS46 KPDT 101104
RWRPDT
PENDLETON REGIONAL WEATHER ROUNDUP
NATIONAL WEATHER SERVICE PENDLETON OREGON
300 AM PST WED FEB 10 2016

NOTE: FAIR INDICATES FEW OR NO CLOUDS BELOW 12,000 FEET WITH NO
SIGNIFICANT WEATHER AND/OR OBSTRUCTIONS TO VISIBILITY.

# INDICATES UNOFFICIAL STATION AND DATA

WAZ520-101210-
EAST SLOPES OF WASHINGTON CASCADES

CITY            SKY/WX      TMP DP  RH  WIND    PRES   REMARKS
#CLE ELUM HS    N/A         28  25  88  CALM    30.19S
#CLE ELUM 2NW   N/A         26  26  100 CALM    N/A
#CLE ELUM LAKE  N/A         33  32  96  CALM    30.25F
#CLIFFDEL 2NW   N/A         28  27  96  N1      N/A
#GLENWOOD       N/A         27  26  96  CALM    30.30F
#MANASTASH CYN  N/A         28  24  85  CALM    30.17F
#NELSON         N/A         N/A N/A N/A CALM    30.22S
#NELSON 3SW     N/A         30  29  96  CALM    30.50F
#NILE           N/A         29  28  96  W1      29.57S
#PEOH POINT     N/A         38  31  76  CALM    N/A
#RONALD 2NW     N/A         33  N/A N/A CALM    30.05F
#SNOWDEN        N/A         31  24  75  CALM    N/A
#TEANAWAY 4NE   N/A         27  27  100 CALM    N/A
#TROUT LAKE 1NE N/A         29  28  96  CALM    30.29F
#TROUT LAKE 1E  N/A         28  27  96  CALM    30.19F
$$

WAZ521-101210-
SIMCOE HIGHLANDS

CITY            SKY/WX      TMP DP  RH  WIND    PRES   REMARKS
#BICKLETON HS   N/A         43  27  53  CALM    N/A
#CENTERVILLE 1SWN/A         30  28  92  CALM    30.24F
#GOLDENDALE     N/A         32  31  96  E2      N/A
#GOLDENDALE 1NE N/A         31  26  81  CALM    N/A
#GOODNOE HILLS  N/A         39  33  79  NE2     30.12F
#LYLE 6NE       N/A         36  34  92  N1      30.24F
$$

WAZ026-101210-
KITTITAS VALLEY

CITY            SKY/WX      TMP DP  RH  WIND    PRES   REMARKS
ELLENSBURG AP   FRZFOG      25  22  88  NE3     30.25S VSB 1/4
#ELLENSBURG CWU N/A         24  22  92  CALM    30.29S
#ELLENSBURG 3NE N/A         24  23  96  CALM    30.24S
#ELLENSBURG     N/A         24  24  100 E1      N/A
#ELLENSBURG 1E  N/A         22  N/A N/A CALM    N/A
#KITTITAS 4N    N/A         25  22  88  E1      30.27S
#KITTITAS 3S    N/A         18  17  96  CALM    30.36S
#THORP 6N       N/A         30  29  96  N3      30.31F
$$

WAZ027-101210-
YAKIMA VALLEY

CITY            SKY/WX      TMP DP  RH  WIND    PRES   REMARKS
SUNNYSIDE AP    CLEAR       28  28  100 CALM    30.26F
YAKIMA AIRPORT  PTCLDY      31  27  85  W7      30.26S
#DONALD 2NE     N/A         39  27  62  N1      29.09F
#GRANDVIEW      N/A         31  28  88  CALM    30.30F
#MABTON         N/A         32  31  96  CALM    30.26F
#MOXEE 2E       N/A         33  29  85  CALM    30.23
#NACHES 2SW     N/A         36  33  89  W1      30.24S
#SELAH 8E       N/A         28  28  100 E2      N/A
#TERRACE HTS    N/A         31  29  92  CALM    30.27S
#TOPPENISH      N/A         33  31  92  CALM    30.20S
#WEST VALLEY    N/A         33  31  92  NW1     30.28S
#W YAKIMA       N/A         34  31  89  NW1     30.29S
#WHITE SWAN 5E  N/A         31  29  92  CALM    30.30S
$$

WAZ028-101210-
LOWER COLUMBIA BASIN...WASHINGTON

CITY            SKY/WX      TMP DP  RH  WIND    PRES   REMARKS
HANFORD         MOCLEAR     34  31  89  N8      30.25S
PASCO           CLEAR       29  27  92  NW3     30.29S
PROSSER AWOS    N/A         28  28  100 SW1     30.30S
RICHLAND AWOS   CLEAR       32  32  100 CALM    30.29S FOG
#BENTON CITY    N/A         34  32  92  CALM    30.20F
#CONNELL 5N     N/A         32  31  96  N1      30.30R
#ELTOPIA 6NW    N/A         35  33  92  CALM    29.23S
#KAHLOTUS       N/A         33  32  96  S6      30.29F
#KENNEWICK 3S   N/A         35  32  89  CALM    30.29S
#PATERSON       N/A         33  31  92  CALM    30.29S
#PROSSER        N/A         37  33  85  CALM    30.28F
#SAGEMOOR 2W    N/A         35  32  89  CALM    30.14S
#TOUCHET 2S     N/A         28  26  92  CALM    30.29S
#WEST PASCO     N/A         31  27  85  CALM    30.31R
$$

WAZ029-101210-
FOOTHILLS OF THE BLUES...WASHINGTON

CITY            SKY/WX      TMP DP  RH  WIND    PRES   REMARKS
WALLA WALLA AP  MOCLDY      35  32  89  E5      30.24F
#CLYDE 6NW      N/A         33  32  96  CALM    30.29F
#DAYTON SCHOOL  N/A         34  28  78  NE1     30.25S
#LOWDEN 2SE     N/A         29  28  96  CALM    30.24F
#PLEASANT VIEW 1N/A         35  34  96  CALM    30.32F
#PRESCOTT       N/A         34  33  96  W1      30.28F
#WHITMAN COLLEGEN/A         37  34  89  NE1     30.34R
#WAITSBURG 5S   N/A         37  35  92  NE3     30.37F
#WAITSBURG 8N   N/A         38  29  70  W3      30.09S
#WALLA WALLA U  N/A         33  31  92  CALM    30.29F
#WHITMAN MISSIONN/A         31  29  92  CALM    30.32S
$$

WAZ030-101210-
BLUE MOUNTAINS...WASHINGTON

CITY            SKY/WX      TMP DP  RH  WIND    PRES   REMARKS
#DIXIE 5SE      N/A         42  35  76  CALM    30.14F
#SKI BLUEWOOD   N/A         34  30  85  CALM    30.23F
$$

ORZ009-041-WAZ024-101210-
COLUMBIA RIVER GORGE

CITY            SKY/WX      TMP DP  RH  WIND    PRES   REMARKS
HOOD RIVER AP   PTCLDY      34  32  92  CALM    30.26F
THE DALLES AP   MOCLDY      34  31  89  CALM    30.27F
#ARLINGTON AIRPON/A         37  35  92  CALM    30.28F
#ARLINGTON HS   N/A         34  31  89  S2      30.19F
#LYLE           N/A         39  35  85  NE2     30.29F
#MARYHILL 2W    N/A         37  37  100 CALM    N/A
#MOSIER 1S      N/A         34  29  82  CALM    30.26S
#MURDOCK        N/A         36  34  92  E1      30.25F

$$

ORZ510-101210-
NORTH CENTRAL OREGON

CITY            SKY/WX      TMP DP  RH  WIND    PRES   REMARKS
#CHENOWITH 1W   N/A         40  35  82  E2      N/A
#COW CYN RST AREN/A         41  35  79  S5      N/A
#GRASS VALLEY 1SN/A         34  32  92  SE3     30.27F
#MAUPIN SCHOOL  N/A         35  32  89  CALM    30.26F
#MORO SCHOOL    N/A         32  32  100 CALM    30.23F
#SHANIKO 4NW    N/A         42  36  79  S6      30.21R
#TYGH VALLEY 2NEN/A         33  31  92  CALM    30.27F
#WAPANITIA AIRPON/A         31  29  92  CALM    30.29F
#WASCO 5NE      N/A         31  29  92  CALM    30.29S
$$

ORZ511-101210-
CENTRAL OREGON

CITY            SKY/WX      TMP DP  RH  WIND    PRES   REMARKS
BEND AIRPORT    MOCLDY      37  32  82  SE9     30.22F
MADRAS AIRPORT  CLOUDY      32  32  100 CALM    30.24F
REDMOND AIRPORT MOCLDY      37  30  75  E6      30.21F
#ASHWOOD SCHOOL N/A         31  30  96  CALM    30.17F
#BEND 6E        N/A         37  29  72  CALM    30.19F
#BEND 1SW       N/A         38  34  85  SW3     N/A
#BEND-KIM LN    N/A         33  29  85  CALM    30.20F
#LAKE BILLY CHINN/A         35  N/A N/A NW3     30.29F
#MADRAS         N/A         33  32  96  S3      N/A
#POWELL BUTTE 3EN/A         43  33  67  E10     N/A
#PRINEVILLE 3N  N/A         33  30  89  E1      30.27F
#WARM SPRINGS   N/A         30  28  92  CALM    30.22S

$$


ORZ509-101210-
EAST SLOPES OF OREGON CASCADES

CITY            SKY/WX      TMP DP  RH  WIND    PRES   REMARKS
SISTERS AWOS    N/A         28  27  96  CALM    30.17F
#BLUE BOX PASS  N/A         46  N/A N/A S5      N/A
#BLACK BUTTE RNCN/A         30  29  96  CALM    30.27F
#CAMP SHERMAN   N/A         27  24  88  CALM    30.31F
#LA PINE 4NW    N/A         25  21  84  CALM    30.36F
#SISTERS AIRPOR N/A         27  27  100 CALM    30.17S
#SISTERS ODOT   N/A         28  N/A N/A CALM    N/A
#SISTERS 3N     N/A         27  21  78  CALM    30.21F
#SUNRIVER       N/A         29  26  88  CALM    30.33F
#SUTTLE LK DOT  N/A         26  26  100 W21G30  N/A    WCI 12
#TUMALO 3W      N/A         39  34  82  N2      30.11F
#WANOGA BUTTE D N/A         39  28  64  CALM    N/A

$$

ORZ044-101210-
LOWER COLUMBIA BASIN...OREGON

CITY            SKY/WX      TMP DP  RH  WIND    PRES   REMARKS
HERMISTON       CLEAR       29  28  96  SE3     30.26S
#BOARDMAN SCHOOLN/A         30  28  92  CALM    30.29F
#BOARDMAN 8SW   N/A         33  30  89  CALM    30.28F
#ECHO 8SW       N/A         33  29  85  CALM    30.27S
#IONE SCHOOL    N/A         30  19  63  CALM    30.23F
#IRRIGON 4NW    N/A         29  29  100 CALM    N/A
#UMATILLA SCHOOLN/A         26  26  100 CALM    30.35R
#UMATILLA       N/A         32  28  85  CALM    30.23F
$$

ORZ507-101210-
NORTHERN FOOTHILLS OF THE BLUES

CITY            SKY/WX      TMP DP  RH  WIND    PRES   REMARKS
PENDLETON AIRPT PTCLDY      31  29  92  S3      30.24S
#ADAMS 3WNW     N/A         30  28  92  CALM    30.29S
#ATHENA         N/A         35  32  89  CALM    30.32F
#CAYUSE         N/A         37  34  89  CALM    30.28F
#HELIX SCHOOL   N/A         34  32  92  CALM    30.29S
#HELIX 3N       N/A         39  34  82  N5      30.18F
#HELIX 6SW      N/A         33  31  92  CALM    30.23R
#HOLDMAN 5SE    N/A         33  31  92  CALM    30.23R
#HOLDMAN 6E     N/A         35  32  89  CALM    30.09S
#M-F GROVE ELEM N/A         34  30  85  CALM    30.22F
#M-FREEWATER 5SEN/A         33  31  92  CALM    30.23F
#PENDLETON DNTN N/A         31  24  75  CALM    30.28S
#PDT AQUATIC CTRN/A         31  24  75  CALM    30.25R
#PDT SUNRIDGE   N/A         28  26  92  CALM    30.27S
#PENDLETON 7NW  N/A         31  27  85  CALM    N/A
#PILOT ROCK     N/A         33  25  72  E1      30.22S
#TUTUILLA       N/A         30  28  92  CALM    30.29S
#WESTON SCHOOL  N/A         38  32  79  CALM    30.19S

$$

ORZ508-101210-
SOUTHERN FOOTHILLS OF THE BLUES

CITY            SKY/WX      TMP DP  RH  WIND    PRES   REMARKS
LEXINGTON       CLEAR       34  32  92  SE8     30.26F
#CONDON SCHOOL  N/A         39  36  89  CALM    30.16S
#CONDON 5W      N/A         43  34  70  SW6     30.18F
#FOSSIL SCHOOL  N/A         35  32  89  CALM    30.15F
#HEPPNER EOC    N/A         35  32  89  E2      30.22S
#HEPPNER 4NE    N/A         35  30  82  E2      30.27S
#LEXINGTON 2SE  N/A         31  28  88  S6      30.19F
#MIKKALO        N/A         34  31  89  E3      30.31F
#OLEX 4N        N/A         34  32  92  S3      30.22S
#RUGGS 5NE      N/A         40  30  67  CALM    30.36R
#RUGGS 2SW      N/A         46  31  56  S6      30.28S

$$

ORZ502-503-101210-
BLUE MOUNTAINS

CITY            SKY/WX      TMP DP  RH  WIND    PRES   REMARKS
MEACHAM         PTCLDY      36  27  69  CALM    30.26S
#LONG CREEK HS  N/A         32  31  96  CALM    N/A
#PIKES PEAK     N/A         52  27  38  S12     27.99S
#TOLLGATE       N/A         31  26  81  CALM    30.09S
#TROY SCHOOL    N/A         34  31  89  W7      30.27F
#UKIAH          N/A         26  24  92  CALM    30.29S
#WESTON 4E      N/A         42  30  62  E10     30.21S
$$

ORZ505-101210-
JOHN DAY BASIN

CITY            SKY/WX      TMP DP  RH  WIND    PRES   REMARKS
JOHN DAY        MOCLDY      37  28  70  E6      30.28F
#MITCHELL       N/A         38  33  82  CALM    30.37S
#MITCHELL 8NW   N/A         48  32  54  CALM    30.43F
#MONUMENT HS    N/A         32  27  82  CALM    30.20S
#MT. VERNON 5SE N/A         44  31  60  SE2     30.22F
#SPRAY SCHOOL   N/A         38  N/A N/A CALM    N/A
#WINLOCK        N/A         39  29  67  CALM    30.20F
$$

ORZ506-101210-
OCHOCO AND JOHN DAY HIGHLANDS

CITY            SKY/WX      TMP DP  RH  WIND    PRES   REMARKS
#BUCK CREEK DOT N/A         29  29  100 SE10    N/A
#HORSE RIDGE DO N/A         38  30  73  SE10    N/A
#PAULINA SCHOOL N/A         50  37  61  CALM    30.24R
#PINE MTN OBS   N/A         43  29  57  S15     N/A    WCI 36
#PRAIRIE CITY   N/A         30  24  78  CALM    30.26S
#SENECA         N/A         17  N/A N/A CALM    N/A
#SENECA 9NW     N/A         21  19  92  CALM    30.47S
$$

ORZ049-101210-
GRANDE RONDE VALLEY

CITY            SKY/WX      TMP DP  RH  WIND    PRES   REMARKS
LA GRANDE       MOCLDY      37  27  67  S22G30  30.33S WCI 26
#COVE           N/A         29  27  92  CALM    30.35F
#COVE SCHOOL    N/A         30  27  88  CALM    30.33F
#COVE 6NW       N/A         33  29  85  SE6     30.24F
#ELGIN 3N       N/A         34  25  69  S7      30.30S
#ELGIN 1E       N/A         34  28  78  CALM    N/A
#IMBLER SCHOOL  N/A         33  28  82  S5      30.28F
#ISLAND CITY 4N N/A         43  41  93  CALM    30.16R
#UNION 1S       N/A         33  29  85  S16G24  30.35S WCI 23
$$

ORZ050-101210-
WALLOWA COUNTY

CITY            SKY/WX      TMP DP  RH  WIND    PRES   REMARKS
#ENTERPRISE AP  N/A         28  26  92  CALM    30.21S
#ENTERPRISE HS  N/A         28  27  96  CALM    30.30R
#IMNAHA SCHOOL  N/A         35  30  82  N2      30.29S
#JOSEPH 3N      N/A         27  24  88  CALM    30.29S
#JOSEPH 3W      N/A         23  19  84  CALM    30.09R
#LOSTINE        N/A         29  28  96  CALM    30.28S
#MT HOWARD 8000 N/A         43  10  25  S6      30.33S
#PROMISE 1S     N/A         27  25  92  CALM    30.50S
#WALLOWA SCHOOL N/A         31  30  96  CALM    30.29F



$$



USA.gov is the U.S. government's official web portal to all federal, state and local government web resources and services.